User: anonymous   Login
Location: Unspecified
(0.0000°N, 0.0000°E)
Time: 11:44:28
(UTC+00:00)
Language:

USA 200 - Orbit

View from above orbital plane
View from above orbital plane
View from above satellite
View from above satellite

Ground track
Ground track

The orbit data is extracted from the following two-line orbital elements,

1 32706U 08010A   17020.77913826 0.00000000  00000-0  00000-0 0    03
2 32706  63.6189   5.8191 7165520 271.0433  15.2424  2.00613000    03
Epoch (UTC): 20 January 2017 18:41:57
Eccentricity: 0.7165520
inclination: 63.6189°
perigee height: 1149 km
apogee height: 39206 km
right ascension of ascending node: 5.8191°
argument of perigee: 271.0433°
revolutions per day: 2.00613000
mean anomaly at epoch: 15.2424°
orbit number at epoch: 0

The dashed part of the orbit path shows where the satellite is in the earth's shadow,  

DLR